ANZEIGE 
Zum Google Play Store Zum Apple Store Zur Informationsseite über die App Holen Sie sich Motorsport Master für iOS oder Android!
Motorsport-Marktplatz
Audi TT RS Clubsport
VB €39.900,00
Audi TT RS Clubsport - Audi TT RS
Bj 2009 106tkm 6Gang Schalter
Navi MMI, Bose, Xenon etc
Hier die wichtigsten Fakten
MOTOR[...]
Motorsport-Total Business-Club
 
ANZEIGE
 
 
Aktuelle Top-Formel-1-Videos
 
ANZEIGE
 
 
Apps zu Formel 1, MotoGP, DTM und Co. für Android, iOS und Windows Phone
Günstige Formel-1-Tickets
Formel-1-Quiz
Sie sind hier: Home > Formel 1 > Ergebnisse > Europa 2012

 GP Europa in Valencia / Qualifying

Session-Informationen im Überblick
Datum 23. Juni 2012 Wetter sonnig
Zeit (MESZ) 14:00 Uhr Lufttemp. 25-26°C
Ortszeit 14:00 Uhr Luftfeucht. 59-64%
Teilnehmer 24 Luftdruck 1.022 mBar
Rekord Rennen 1:38.683 Minuten Asphalt 43-45°C
Rekord Qualifying 1:36.975 Minuten Wind 2,5 m/s, Nordosten
Einzel-Sessions
Gesamtklassement
Klassement der dritten Qualifyingsession
Klassement der zweiten Qualifyingsession
Klassement der ersten Qualifyingsession

Gesamtklassement

Pos. Nr. Fahrer Team Zeit Abstand auf V. Rnd.
1 1 S. Vettel Red Bull 1:38.086     3
2 4 L. Hamilton McLaren 1:38.410 +0:00.324 +0:00.324 6
3 18 P. Maldonado Williams 1:38.475 +0:00.389 +0:00.065 5
4 10 R. Grosjean Lotus 1:38.505 +0:00.419 +0:00.030 3
5 9 K. Räikkönen Lotus 1:38.513 +0:00.427 +0:00.008 6
6 8 N. Rosberg Mercedes 1:38.623 +0:00.537 +0:00.110 5
7 14 K. Kobayashi Sauber 1:38.741 +0:00.655 +0:00.118 3
8 12 N. Hülkenberg Force India 1:38.752 +0:00.666 +0:00.011 4
9 3 J. Button McLaren 1:38.801 +0:00.715 +0:00.049 6
10 11 P. di Resta Force India 1:38.992 +0:00.906 +0:00.191 4
11 5 F. Alonso Ferrari 1:38.707     8
12 7 M. Schumacher Mercedes 1:38.770 +0:00.063 +0:00.063 7
13 6 F. Massa Ferrari 1:38.780 +0:00.073 +0:00.010 8
14 19 B. Senna Williams 1:39.207 +0:00.500 +0:00.427 7
15 15 S. Perez Sauber 1:39.358 +0:00.651 +0:00.151 6
16 20 H. Kovalainen Caterham 1:40.295 +0:01.588 +0:00.937 3
17 16 D. Ricciardo Toro Rosso 1:40.358 +0:01.651 +0:00.063 3
18 17 J. Vergne Toro Rosso 1:40.203     9
19 2 M. Webber Red Bull 1:40.395 +0:00.192 +0:00.192 7
20 21 W. Petrow Caterham 1:40.457 +0:00.254 +0:00.062 8
21 22 P. de la Rosa HRT 1:42.171 +0:01.968 +0:01.714 7
22 23 N. Karthikeyan HRT 1:42.527 +0:02.324 +0:00.356 8
23 25 C. Pic Marussia 1:42.675 +0:02.472 +0:00.148 10
24 24 T. Glock Marussia -:--.--- -:--.--- -:--.--- 0
  107-Prozent-Zeit 1:45.742
auf V. = auf Vordermann, Rnd. = Runden

 

Klassement der dritten Qualifyingsession

Pos. Nr. Fahrer Team Zeit Abstand auf V. Rnd.
1 1 S. Vettel Red Bull 1:38.086     3
2 4 L. Hamilton McLaren 1:38.410 +0:00.324 +0:00.324 6
3 18 P. Maldonado Williams 1:38.475 +0:00.389 +0:00.065 5
4 10 R. Grosjean Lotus 1:38.505 +0:00.419 +0:00.030 3
5 9 K. Räikkönen Lotus 1:38.513 +0:00.427 +0:00.008 6
6 8 N. Rosberg Mercedes 1:38.623 +0:00.537 +0:00.110 5
7 14 K. Kobayashi Sauber 1:38.741 +0:00.655 +0:00.118 3
8 12 N. Hülkenberg Force India 1:38.752 +0:00.666 +0:00.011 4
9 3 J. Button McLaren 1:38.801 +0:00.715 +0:00.049 6
10 11 P. di Resta Force India 1:38.992 +0:00.906 +0:00.191 4
  107-Prozent-Zeit 1:44.952
auf V. = auf Vordermann, Rnd. = Runden

 

Klassement der zweiten Qualifyingsession

Pos. Nr. Fahrer Team Zeit Abstand auf V. Rnd.
1 10 R. Grosjean Lotus 1:38.489     6
2 8 N. Rosberg Mercedes 1:38.504 +0:00.015 +0:00.015 3
3 11 P. di Resta Force India 1:38.519 +0:00.030 +0:00.015 6
4 1 S. Vettel Red Bull 1:38.530 +0:00.041 +0:00.011 6
5 9 K. Räikkönen Lotus 1:38.531 +0:00.042 +0:00.001 3
6 3 J. Button McLaren 1:38.563 +0:00.074 +0:00.032 5
7 18 P. Maldonado Williams 1:38.570 +0:00.081 +0:00.007 6
8 4 L. Hamilton McLaren 1:38.616 +0:00.127 +0:00.046 5
9 12 N. Hülkenberg Force India 1:38.689 +0:00.200 +0:00.073 8
10 14 K. Kobayashi Sauber 1:38.703 +0:00.214 +0:00.014 5
11 5 F. Alonso Ferrari 1:38.707 +0:00.218 +0:00.004 8
12 7 M. Schumacher Mercedes 1:38.770 +0:00.281 +0:00.063 7
13 6 F. Massa Ferrari 1:38.780 +0:00.291 +0:00.010 8
14 19 B. Senna Williams 1:39.207 +0:00.718 +0:00.427 7
15 15 S. Perez Sauber 1:39.358 +0:00.869 +0:00.151 6
16 20 H. Kovalainen Caterham 1:40.295 +0:01.806 +0:00.937 3
17 16 D. Ricciardo Toro Rosso 1:40.358 +0:01.869 +0:00.063 3
  107-Prozent-Zeit 1:45.383
auf V. = auf Vordermann, Rnd. = Runden

 

Klassement der ersten Qualifyingsession

Pos. Nr. Fahrer Team Zeit Abstand auf V. Rnd.
1 18 P. Maldonado Williams 1:38.825     10
2 11 P. di Resta Force India 1:38.858 +0:00.033 +0:00.033 8
3 12 N. Hülkenberg Force India 1:39.009 +0:00.184 +0:00.151 7
4 8 N. Rosberg Mercedes 1:39.061 +0:00.236 +0:00.052 9
5 4 L. Hamilton McLaren 1:39.169 +0:00.344 +0:00.108 6
6 15 S. Perez Sauber 1:39.353 +0:00.528 +0:00.184 8
7 6 F. Massa Ferrari 1:39.388 +0:00.563 +0:00.035 6
8 5 F. Alonso Ferrari 1:39.409 +0:00.584 +0:00.021 6
9 7 M. Schumacher Mercedes 1:39.447 +0:00.622 +0:00.038 5
10 19 B. Senna Williams 1:39.449 +0:00.624 +0:00.002 8
11 9 K. Räikkönen Lotus 1:39.464 +0:00.639 +0:00.015 7
12 10 R. Grosjean Lotus 1:39.530 +0:00.705 +0:00.066 7
13 3 J. Button McLaren 1:39.622 +0:00.797 +0:00.092 5
14 1 S. Vettel Red Bull 1:39.626 +0:00.801 +0:00.004 6
15 14 K. Kobayashi Sauber 1:39.651 +0:00.826 +0:00.025 4
16 16 D. Ricciardo Toro Rosso 1:39.924 +0:01.099 +0:00.273 9
17 20 H. Kovalainen Caterham 1:40.087 +0:01.262 +0:00.163 8
18 17 J. Vergne Toro Rosso 1:40.203 +0:01.378 +0:00.116 9
19 2 M. Webber Red Bull 1:40.395 +0:01.570 +0:00.192 7
20 21 W. Petrow Caterham 1:40.457 +0:01.632 +0:00.062 8
21 22 P. de la Rosa HRT 1:42.171 +0:03.346 +0:01.714 7
22 23 N. Karthikeyan HRT 1:42.527 +0:03.702 +0:00.356 8
23 25 C. Pic Marussia 1:42.675 +0:03.850 +0:00.148 10
24 24 T. Glock Marussia -:--.--- -:--.--- -:--.--- 0
  107-Prozent-Zeit 1:45.742
auf V. = auf Vordermann, Rnd. = Runden

 

 

 
Nach oben